This is the latest recevied weather packets stored in our database for station/object OH6GKW. If no packets are shown the sender has not sent any weather packets the latest 10 day(s).
| Time | Temp. | Humidity | Pressure | Rain* | Wind** | Luminosity | Snow |
|---|---|---|---|---|---|---|---|
| 1787935722 | 18.89° C | 73% | 1019 hPa | 0 mm | - | 107 W/m² | - |
| 1787935415 | 18.89° C | 72% | 1019.1 hPa | 0 mm | - | 132 W/m² | - |
| 1787935111 | 18.89° C | 72% | 1019.1 hPa | 0 mm | - | 137 W/m² | - |
| 1787934822 | 18.89° C | 72% | 1019.1 hPa | 0 mm | - | 134 W/m² | - |
| 1787934511 | 18.89° C | 72% | 1019.3 hPa | 0 mm | - | 137 W/m² | - |
| 1787934235 | 18.89° C | 71% | 1019.3 hPa | 0 mm | - | 53 W/m² | - |
| 1787933934 | 19.44° C | 70% | 1019.3 hPa | 0 mm | - | 97 W/m² | - |
| 1787933626 | 19.44° C | 70% | 1019.4 hPa | 0 mm | - | 158 W/m² | - |
| 1787933317 | 19.44° C | 70% | 1019.4 hPa | 0 mm | - | 81 W/m² | - |
| 1787933016 | 19.44° C | 71% | 1019.4 hPa | 0 mm | - | 53 W/m² | - |
| 1787932707 | 19.44° C | 74% | 1019.6 hPa | 0 mm | - | 187 W/m² | - |
| 1787932423 | 19.44° C | 76% | 1019.6 hPa | 0 mm | - | 238 W/m² | - |
| 1787932114 | 18.89° C | 75% | 1019.6 hPa | 0 mm | - | 253 W/m² | - |
| 1787931823 | 18.89° C | 76% | 1019.8 hPa | 0 mm | - | 86 W/m² | - |
| 1787931513 | 18.89° C | 75% | 1019.8 hPa | 0 mm | - | 60 W/m² | - |
| 1787931240 | 18.89° C | 75% | 1019.8 hPa | 0 mm | - | 70 W/m² | - |
| 1787930931 | 18.89° C | 72% | 1019.9 hPa | 0 mm | - | 88 W/m² | - |
| 1787930624 | 18.89° C | 72% | 1019.9 hPa | 0 mm | - | 114 W/m² | - |
| 1787930316 | 18.89° C | 72% | 1019.9 hPa | 0 mm | - | 120 W/m² | - |
| 1787930012 | 18.89° C | 73% | 1020 hPa | 0 mm | - | 95 W/m² | - |
| 1787929727 | 18.33° C | 73% | 1020 hPa | 0 mm | - | 83 W/m² | - |
| 1787929422 | 18.33° C | 73% | 1020 hPa | 0 mm | - | 79 W/m² | - |
| 1787929110 | 18.33° C | 73% | 1020.1 hPa | 0 mm | - | 60 W/m² | - |
| 1787928807 | 18.33° C | 73% | 1020.1 hPa | 0 mm | - | 62 W/m² | - |
| 1787928529 | 18.89° C | 73% | 1020.1 hPa | 0 mm | - | 81 W/m² | - |
* Rain since midnight (hover to see other rain measurements)
** Current wind speed in m/s (hover to see current wind gust speed)